STARLINK-34825

Last updated on Mon Oct 20 2025 00:02:06 GMT+0000 (Coordinated Universal Time)

1 65692U 25212S 25292.25002315 -.02050365 00000+0 -48449-1 0 9990 2 65692 53.1591 282.7886 0001074 69.5084 32.5481 15.44809913 5663
UTC large
Height (km)
Speed (km/s)
/
Latitude / Longitude
Inclination (degrees)
Orbital Period (minutes)
Azimuth
Elevation
Range (km)
Doppler Factor

Next 0 passes for location: London (51.5072 / 0.1276)

Sorry there are no passes over London.